This is the latest recevied weather packets stored in our database for station/object YB1DDK-2. If no packets are shown the sender has not sent any weather packets the latest 10 day(s).
| Time | Temp. | Humidity | Pressure | Rain* | Wind** | Luminosity | Snow |
|---|---|---|---|---|---|---|---|
| 1777704996 | 35.56° C | 57% | 998 hPa | - | - | 0 W/m² | - |
| 1777704074 | 36.11° C | 56% | 999 hPa | - | - | 0 W/m² | - |
| 1777703152 | 36.11° C | 53% | 999 hPa | - | - | 0 W/m² | - |
| 1777702230 | 36.67° C | 51% | 999 hPa | - | - | 0 W/m² | - |
| 1777701308 | 36.11° C | 52% | 999 hPa | - | - | 0 W/m² | - |
| 1777700386 | 36.11° C | 53% | 1000 hPa | - | - | 0 W/m² | - |
| 1777699464 | 35.56° C | 55% | 1000 hPa | - | - | 0 W/m² | - |
| 1777698541 | 35.56° C | 54% | 1000 hPa | - | - | 0 W/m² | - |
| 1777697619 | 35° C | 57% | 1000 hPa | - | - | 0 W/m² | - |
| 1777696697 | 35° C | 60% | 1001 hPa | - | - | 0 W/m² | - |
| 1777695775 | 34.44° C | 62% | 1001 hPa | - | - | 0 W/m² | - |
| 1777694854 | 34.44° C | 65% | 1001 hPa | - | - | 0 W/m² | - |
| 1777693931 | 34.44° C | 63% | 1002 hPa | - | - | 0 W/m² | - |
| 1777693009 | 33.89° C | 63% | 1002 hPa | - | - | 0 W/m² | - |
| 1777692088 | 33.89° C | 62% | 1002 hPa | - | - | 0 W/m² | - |
| 1777691165 | 34.44° C | 59% | 1002 hPa | - | - | 0 W/m² | - |
| 1777690243 | 34.44° C | 60% | 1002 hPa | - | - | 0 W/m² | - |
| 1777689321 | 32.78° C | 64% | 1002 hPa | - | - | 0 W/m² | - |
| 1777688399 | 32.78° C | 64% | 1002 hPa | - | - | 0 W/m² | - |
| 1777687477 | 32.22° C | 65% | 1002 hPa | - | - | 0 W/m² | - |
| 1777686555 | 32.22° C | 65% | 1002 hPa | - | - | 0 W/m² | - |
| 1777685633 | 31.67° C | 67% | 1002 hPa | - | - | 0 W/m² | - |
| 1777684711 | 31.67° C | 69% | 1002 hPa | - | - | 0 W/m² | - |
| 1777684639 | 31.67° C | 69% | 1002 hPa | - | - | 0 W/m² | - |
| 1777683718 | 31.11° C | 70% | 1001 hPa | - | - | 0 W/m² | - |
* Rain since midnight (hover to see other rain measurements)
** Current wind speed in m/s (hover to see current wind gust speed)